Tracking 19817 objects as of 19-Aug-2019
HD Live streaming from Space Station
objects crossing your sky now

COSMOS 2251 DEB

Track COSMOS 2251 DEB now!
10-day predictions


NORAD ID: 34879
Int'l Code: 1993-036ACS
Perigee: 764.6 km
Apogee: 1,587.0 km
Inclination: 73.9 °
Period: 108.7 minutes
Semi major axis: 7546 km
RCS: 0.0088 m2 (small)
Launch date: June 16, 1993
Source: Commonwealth of Independent States (former USSR) (CIS)
Launch site: PLESETSK MISSILE AND SPACE COMPLEX (PKMTR)

Note: This is SATELLITE DEBRIS
aabbcc
Your satellite tracking list
Your tracking list is empty




NASA's NSSDC Master Catalog

Two Line Element Set (TLE):
1 34879U 93036ACS 19229.17311167 +.00000125 +00000-0 +15063-3 0  9998
2 34879 073.9143 275.6587 0544864 042.5067 321.6897 13.24225782276721
Source of the keplerian elements: AFSPC